CST,Max TemperatureF,Mean TemperatureF,Min TemperatureF,Max Dew PointF,MeanDew PointF,Min DewpointF,Max Humidity, Mean Humidity, Min Humidity, Max Sea Level PressureIn, Mean Sea Level PressureIn, Min Sea Level PressureIn, Max VisibilityMiles, Mean VisibilityMiles, Min VisibilityMiles, Max Wind SpeedMPH, Mean Wind SpeedMPH, Max Gust SpeedMPH,PrecipitationIn, CloudCover, Events, WindDirDegrees
2012-11-1,40,34,27,32,27,22,89,70,50,30.19,30.13,30.07,10,10,8,18,11,23,0.00,5,,80
2012-11-2,35,31,27,32,26,21,96,86,75,30.16,30.10,30.04,10,6,1,15,6,18,0.09,7,Snow,130
2012-11-3,35,33,30,32,29,24,96,84,72,30.30,30.20,30.11,10,7,2,13,6,16,T,8,Snow,330
2012-11-4,34,32,30,34,29,24,100,89,78,30.28,30.19,30.09,10,5,1,13,5,15,0.12,8,Rain-Snow,153
2012-11-5,46,40,33,41,35,33,100,88,76,30.28,30.09,29.84,10,7,1,21,8,31,0.04,7,Rain,220
2012-11-6,51,39,26,32,29,24,85,65,44,30.15,30.08,29.94,10,10,10,28,13,37,0.00,0,,303
2012-11-7,56,40,23,31,28,22,96,66,35,30.13,29.91,29.74,10,10,10,23,9,29,0.00,2,,152
2012-11-8,45,38,30,38,30,27,85,74,62,30.19,30.06,29.80,10,10,10,22,11,29,0.00,7,,18
2012-11-9,30,28,26,28,26,24,100,93,85,30.19,30.03,29.82,10,6,2,28,17,36,0.04,8,Rain,69
2012-11-10,31,24,16,30,23,12,100,92,84,29.87,29.76,29.67,10,3,0,25,13,33,0.78,8,Fog-Rain-Snow,340
2012-11-11,17,12,7,12,9,1,88,78,67,30.06,29.94,29.82,10,5,2,30,19,39,T,7,Snow,288
2012-11-12,24,14,3,16,6,-1,100,84,67,30.26,30.20,30.07,10,8,0,22,9,31,0.00,0,Fog,269
2012-11-13,32,18,3,26,16,3,92,85,78,30.28,30.23,30.15,10,7,0,7,2,7,0.00,4,Fog,76
2012-11-14,41,28,14,30,19,12,96,86,76,30.24,30.14,30.05,10,6,0,9,2,10,0.00,2,Fog,76
2012-11-15,34,26,17,25,21,17,100,83,66,30.51,30.42,30.20,10,10,5,12,5,17,0.00,0,,204
2012-11-16,42,33,24,31,25,16,92,77,62,30.39,30.15,30.05,10,10,10,20,8,26,0.00,0,,145
2012-11-17,44,35,25,34,29,25,100,85,70,30.10,30.06,29.98,10,8,1,12,3,12,0.00,3,,63
2012-11-18,48,35,22,38,26,21,100,83,66,30.04,29.94,29.84,10,2,0,10,3,10,0.00,1,Fog,64
2012-11-19,49,38,26,33,29,24,92,71,50,30.20,30.13,29.98,10,10,5,13,5,18,0.00,0,,330
2012-11-20,49,38,26,34,29,24,92,74,56,30.14,30.00,29.89,10,10,10,12,5,13,0.00,0,,127
2012-11-21,54,42,29,37,32,27,92,71,50,29.92,29.75,29.62,10,10,10,18,3,25,0.00,0,,58
2012-11-22,44,33,21,35,22,9,92,80,68,30.51,30.09,29.71,10,8,4,29,19,37,T,7,Snow,316
2012-11-23,24,19,13,14,10,8,84,72,59,30.61,30.51,30.30,10,9,3,24,8,32,T,4,Snow,328
2012-11-24,41,31,20,30,20,14,88,71,54,30.25,29.99,29.83,10,10,10,23,10,30,T,4,,220
2012-11-25,30,19,8,22,13,2,92,76,59,30.41,30.15,29.98,10,10,7,21,10,26,0.00,4,,318
2012-11-26,34,19,4,17,9,-1,87,68,49,30.51,30.39,30.23,10,10,9,14,5,16,0.00,2,,238
2012-11-27,34,24,14,25,17,8,92,81,69,30.32,30.21,30.10,10,8,4,9,2,12,0.00,3,,280
2012-11-28,34,23,12,26,18,10,100,85,69,30.32,30.17,30.06,10,4,0,13,4,15,0.00,3,Fog,109
2012-11-29,24,19,13,21,12,6,100,84,67,30.18,30.13,30.02,10,10,4,17,11,23,0.00,7,,87
2012-11-30,33,27,20,26,22,18,100,86,72,30.18,29.96,29.74,8,4,1,18,9,21,0.00,5,,145